Zurück zum Katalog

GAOFEN 11 3

AktivWissenschaftSSO
NORAD 49492·PAYLOAD·🇨🇳 China

Gestartet Nov 20, 2021 von Taiyuan Satellite Launch Center

Loading…

Nächste Überflüge (nächste 24 Stunden)

TLE

AktuellSource: Space-Track

Epoche: Sep 14, 2026, 15:07 UTC

1 49492U 21107A   26257.63036674  .00003789  00000-0  16090-3 0  9992
2 49492  97.2000 298.2547 0005876 114.6877 245.4973 15.23640917268250

Verfolge GAOFEN 11 3 in Echtzeit mit AllMySat

Download on the App Store